Погода в Елнати

Россия / Ивановская область     57°20′14″N   42°49′05″E
темп.,
°C
ветер,
м/с
пор.,
м/с
влажн.,
%
обл.,
%
осадки,
мм/ч
давл.,
гПа
погр.,
м
19 июня, сб
сб1900:00+16зюз39885 0.0 1025171
03:00+15зюз411867 0.0 1024222
06:00+17зюз4127717 0.0 1024364
09:00+23зюз595764 0.0 1023668
12:00+27з69495 0.0 10221571
15:00+27зсз694920 0.0 10221696
18:00+25з58595 0.0 1021939
21:00+20зюз38834 0.0 1021150
20 июня, вс
вс2000:00+18з39905 0.0 1022165
03:00+17з38915 0.0 1022133
06:00+20з37785 0.0 1022184
09:00+25з35560 0.0 1022568
12:00+28зюз44455 0.0 10221472
15:00+29зюз44425 0.0 10211668
18:00+27зюз25555 0.0 1020301
21:00+21з22810 0.0 102124
21 июня, пн
пн2100:00+19зюз22870 0.0 102133
03:00+17зюз35860 0.0 102273
06:00+20зюз36790 0.0 1022173
09:00+26зюз24595 0.0 1022675
12:00+29юз444615 0.0 10211612
15:00+30зюз34394 0.0 10211860
18:00+27юз3556100 0.0 1020231
21:00+22зюз3470100 0.0 102148
22 июня, вт
вт2200:00+20юз337376 0.0 102243
03:00+18зюз227896 0.0 102231
06:00+20зюз2376100 0.0 1022119
09:00+26зюз235895 0.0 1022534
12:00+29юз2348100 0.0 10221508
15:00+30юз334244 0.0 10211783
18:00+29зюз23530 0.0 1020240
21:00+22з00680 0.0 102011
23 июня, ср
ср2300:00+20юз117342 0.0 102111
03:00+19зюз118617 0.0 102112
06:00+23з23778 0.0 1022126
09:00+28з235838 0.0 1021657
12:00+31з344511 0.0 10211721
15:00+32з334293 0.0 10212167
18:00+30з35535 0.0 1020357
21:00+24з227436 0.0 102019